#timestamp,LO_Frequency,Hit,StdDev 
1617422895.9,286047010.7,P
1617422915.7,286047009.3,P
1617422935.6,286047009.6,P
1617422955.4,286047010.8,Y
1617422975.2,286046999.7,P
1617422995.1,286047001.6,N
1617422996.0,286047001.6,N
1617423015.8,286047001.5,N
1617423035.7,286047002.0,N
1617423055.5,286047002.3,N
1617423075.3,286046999.9,N
1617423095.2,286046999.7,N
1617423115.0,286047002.4,N
1617423115.9,286047002.4,N
1617423135.8,286047002.1,N
1617423155.6,286047000.3,N
1617423205.5,286047002.7,E
1617423215.4,286047000.3,N
1617423235.2,286047000.9,P
1617423255.1,286046998.5,P
1617423256.0,286046998.5,N
1617423275.8,286046998.7,N
1617423295.6,286046999.0,N
1617423315.5,286046998.2,N
1617423335.3,286047001.2,N
1617423355.1,286047000.2,N
1617423375.9,286047000.6,N
1617423395.7,286046998.7,N
1617423415.6,286046999.7,N
1617423435.4,286047000.0,N
1617423455.2,286047000.1,N
1617423475.1,286047002.1,N
1617423476.0,286047002.1,N
1617423495.8,286047000.6,N
1617423515.6,286047001.0,N
1617423535.5,286047001.0,N
1617423555.3,286047000.1,N
1617423575.2,286047002.7,N
1617423595.9,286047000.4,N
1617423615.7,286047000.7,N
1617423635.6,286047000.0,N
1617423655.4,286047000.1,N
1617423675.2,286046999.9,N
1617423695.1,286047001.0,N
1617423696.0,286047001.0,N
1617423715.8,286046999.9,N
1617423735.7,286047001.9,N
1617423755.5,286047002.0,N
1617423775.3,286047004.3,Y
1617423795.2,286047004.0,P
1617423815.0,286047004.4,N
1617423815.9,286047004.4,N
1617423835.8,286047001.5,N
1617423855.6,286047001.7,N
1617423875.4,286047000.1,N
1617423895.3,286047002.3,N
1617423915.1,286047001.3,N
1617423935.8,286047001.4,N
1617423955.7,286047005.1,Y
1617423975.5,286047001.5,P
1617423995.4,286047002.1,P
1617424015.2,286047004.4,P
1617424035.0,286047003.9,Y
1617424035.9,286047003.9,P
1617424055.8,286047001.1,N
1617424075.6,286046999.3,N
1617424095.5,286046998.1,N
1617424115.3,286047001.1,N
1617424135.1,286047001.0,N
1617424155.9,286047000.6,N
1617424175.7,286046998.1,N
1617424195.6,286047000.5,N
1617424215.4,286046999.7,N
1617424235.2,286047001.5,N
1617424255.1,286047001.9,N
1617424256.0,286047001.9,N
1617424275.8,286047002.1,N
1617424295.6,286047004.0,N
1617424315.5,286047001.6,N
1617424335.3,286047001.8,N
1617424355.2,286047003.1,N
1617424375.9,286047005.9,Y
1617424395.7,286047001.6,P
1617424415.6,286047001.5,P
1617424435.4,286047001.8,P
1617424455.2,286047002.1,Y
1617424475.1,286046999.8,P
1617424476.0,286046999.8,N
1617424495.8,286047000.4,N
1617424515.7,286047001.0,N
1617424535.5,286047000.5,N
1617424555.3,286047000.2,N
1617424575.2,286046999.8,N
1617424595.0,286047000.2,N
1617424595.9,286047000.2,N
1617424615.8,286047002.8,Y
1617424635.6,286047002.8,P
1617424655.4,286047001.3,N
1617424675.3,286047003.3,P
1617424695.1,286047004.7,Y
1617424715.8,286047003.9,P
1617424735.7,286047001.8,N
1617424755.5,286047003.1,P
1617424775.4,286047005.7,Y
1617424795.2,286047000.7,P
1617424815.0,286046998.1,N
1617424815.9,286046998.1,N
1617424835.8,286046998.8,N
1617424855.6,286047002.4,N
1617424875.4,286047001.6,N
1617424895.3,286047004.2,N
1617424915.1,286047001.6,N
1617424935.9,286047001.7,N
1617424955.7,286047002.0,N
1617424975.5,286047003.3,N
1617424995.4,286047003.6,N
1617425015.2,286047002.9,N
1617425035.0,286047005.1,N
1617425035.9,286047005.1,N
1617425055.8,286047005.0,N
1617425075.6,286047004.7,N
1617425095.5,286047004.9,N
1617425115.3,286047007.2,Y
1617425135.1,286047005.9,P
1617425155.9,286047005.1,N
1617425175.7,286047005.1,P
1617425195.6,286047007.3,Y
1617425215.4,286047002.2,P
1617425235.2,286047004.2,P
1617425255.1,286047004.3,P
1617425256.0,286047004.3,Y
1617425275.8,286047001.0,P
1617425295.6,286047000.6,N
1617425315.5,286047002.1,N
1617425335.3,286047001.4,N
1617425355.2,286047003.9,Y
1617425375.9,286047002.7,P
1617425395.7,286047002.2,P
1617425415.6,286047002.0,P
1617425435.4,286047003.7,Y
1617425455.2,286047002.1,P
1617425475.1,286047001.8,P
1617425476.0,286047001.8,P
1617425495.8,286047001.8,Y
1617425515.7,286047002.3,P
1617425535.5,286047001.9,P
1617425555.3,286047004.3,P
1617425575.2,286047002.9,N
1617425595.0,286047005.9,Y
1617425595.9,286047005.9,P
1617425615